| time (UTC) | temp F | wind direction | speed MPH | gust MPH | rain 1hr in | rain 24hr in | rain mn in | humidity % | barometer mb |
| 20260507020000 | 54 | 156 | 1.0 | 2.0 | 0.00 | 0.00 | 0.09 | 95 | 1005.5 |
| 20260507014501 | 54 | 158 | 1.0 | 1.0 | 0.00 | 0.00 | 0.09 | 95 | 1005.5 |
| 20260507013000 | 54 | 181 | 1.0 | 3.0 | 0.00 | 0.00 | 0.09 | 95 | 1005.7 |
| 20260507011500 | 54 | 142 | 1.0 | 3.0 | 0.00 | 0.00 | 0.09 | 95 | 1005.9 |
| 20260507010000 | 54 | 159 | 0.0 | 2.0 | 0.00 | 0.00 | 0.09 | 96 | 1006.1 |
| 20260507004500 | 54 | 168 | 3.0 | 5.0 | 0.00 | 0.00 | 0.09 | 96 | 1006.1 |
| 20260507003000 | 54 | 184 | 2.0 | 2.0 | 0.00 | 0.00 | 0.09 | 96 | 1005.9 |
| 20260507001500 | 54 | 147 | 1.0 | 1.0 | 0.00 | 0.00 | 0.09 | 96 | 1006.0 |
| 20260507000000 | 54 | 203 | 2.0 | 4.0 | 0.00 | 0.00 | 0.09 | 96 | 1006.0 |
| 20260506234500 | 54 | 143 | 2.0 | 3.0 | 0.00 | 0.00 | 0.09 | 96 | 1006.0 |
| 20260506233000 | 54 | 174 | 2.0 | 4.0 | 0.00 | 0.00 | 0.09 | 97 | 1005.9 |
| 20260506231500 | 53 | 187 | 3.0 | 9.0 | 0.00 | 0.00 | 0.09 | 96 | 1006.0 |
| 20260506230000 | 53 | 177 | 2.0 | 7.0 | 0.00 | 0.00 | 0.08 | 96 | 1005.9 |
| 20260506224500 | 53 | 132 | 3.0 | 6.0 | 0.00 | 0.00 | 0.08 | 96 | 1005.9 |
| 20260506223000 | 53 | 151 | 2.0 | 6.0 | 0.00 | 0.00 | 0.07 | 96 | 1005.9 |
| 20260506221500 | 53 | 176 | 3.0 | 5.0 | 0.00 | 0.00 | 0.07 | 95 | 1006.0 |
| 20260506220000 | 53 | 109 | 2.0 | 5.0 | 0.00 | 0.00 | 0.06 | 95 | 1006.3 |
| 20260506214500 | 53 | 145 | 5.0 | 7.0 | 0.00 | 0.00 | 0.04 | 95 | 1006.7 |
| 20260506213000 | 53 | 188 | 7.0 | 6.0 | 0.00 | 0.00 | 0.04 | 94 | 1006.6 |
| 20260506211500 | 53 | 158 | 2.0 | 7.0 | 0.00 | 0.00 | 0.04 | 94 | 1006.8 |
| 20260506210000 | 53 | 149 | 4.0 | 7.0 | 0.00 | 0.00 | 0.04 | 93 | 1006.9 |
| 20260506203000 | 53 | 208 | 5.0 | 6.0 | 0.00 | 0.00 | 0.02 | 92 | 1007.1 |
| 20260506201500 | 54 | 182 | 5.0 | 10.0 | 0.00 | 0.00 | 0.03 | 91 | 1007.3 |
| 20260506200000 | 55 | 152 | 5.0 | 7.0 | 0.00 | 0.00 | 0.03 | 91 | 1007.4 |
| 20260506194500 | 55 | 0 | 0.0 | 6.0 | 0.00 | 0.00 | 0.03 | 91 | 1007.4 |
| 20260506193000 | 57 | 179 | 1.0 | 5.0 | 0.00 | 0.00 | 0.00 | 88 | 1007.6 |
| 20260506191500 | 59 | 162 | 3.0 | 10.0 | 0.00 | 0.00 | 0.00 | 83 | 1007.6 |
| 20260506190000 | 59 | 188 | 4.0 | 6.0 | 0.00 | 0.00 | 0.00 | 81 | 1007.5 |
| 20260506184500 | 58 | 127 | 3.0 | 8.0 | 0.00 | 0.00 | 0.00 | 82 | 1007.7 |
| 20260506183000 | 58 | 206 | 2.0 | 8.0 | 0.00 | 0.00 | 0.00 | 82 | 1007.8 |
| 20260506181500 | 59 | 187 | 6.0 | 5.0 | 0.00 | 0.00 | 0.00 | 81 | 1008.0 |
| 20260506180000 | 58 | 168 | 3.0 | 4.0 | 0.00 | 0.00 | 0.00 | 82 | 1008.0 |
| 20260506174500 | 59 | 152 | 4.0 | 7.0 | 0.00 | 0.00 | 0.00 | 80 | 1008.4 |
| 20260506173000 | 60 | 130 | 1.0 | 9.0 | 0.00 | 0.00 | 0.00 | 79 | 1008.6 |
| 20260506171500 | 61 | 276 | 1.0 | 5.0 | 0.00 | 0.00 | 0.00 | 77 | 1008.6 |
| 20260506170000 | 61 | 268 | 2.0 | 11.0 | 0.00 | 0.00 | 0.00 | 78 | 1008.8 |
| 20260506164500 | 61 | 182 | 2.0 | 7.0 | 0.00 | 0.00 | 0.00 | 77 | 1008.4 |
| 20260506163000 | 59 | 138 | 2.0 | 9.0 | 0.00 | 0.00 | 0.00 | 80 | 1009.0 |
| 20260506161500 | 60 | 169 | 7.0 | 13.0 | 0.00 | 0.00 | 0.00 | 79 | 1009.2 |
| 20260506160000 | 62 | 198 | 6.0 | 6.0 | 0.00 | 0.00 | 0.00 | 77 | 1009.6 |
| 20260506154500 | 62 | 214 | 4.0 | 10.0 | 0.00 | 0.00 | 0.00 | 75 | 1009.3 |
| 20260506153000 | 61 | 148 | 4.0 | 6.0 | 0.00 | 0.00 | 0.00 | 77 | 1009.3 |
| 20260506151500 | 60 | 146 | 4.0 | 7.0 | 0.00 | 0.00 | 0.00 | 79 | 1009.4 |
| 20260506150000 | 60 | 172 | 5.0 | 8.0 | 0.00 | 0.00 | 0.00 | 78 | 1009.3 |
| 20260506144500 | 60 | 128 | 4.0 | 7.0 | 0.00 | 0.00 | 0.00 | 80 | 1008.9 |
| 20260506143000 | 59 | 159 | 5.0 | 8.0 | 0.00 | 0.00 | 0.00 | 80 | 1009.2 |
| 20260506141500 | 60 | 219 | 3.0 | 7.0 | 0.00 | 0.00 | 0.00 | 80 | 1009.4 |
| 20260506140000 | 59 | 186 | 5.0 | 9.0 | 0.00 | 0.00 | 0.00 | 80 | 1009.0 |
| 20260506134500 | 60 | 190 | 7.0 | 6.0 | 0.00 | 0.00 | 0.00 | 80 | 1009.4 |
| 20260506133000 | 59 | 176 | 5.0 | 7.0 | 0.00 | 0.00 | 0.00 | 81 | 1009.4 |
| 20260506131500 | 59 | 143 | 4.0 | 8.0 | 0.00 | 0.00 | 0.00 | 82 | 1009.5 |
| 20260506130000 | 58 | 144 | 4.0 | 9.0 | 0.00 | 0.00 | 0.00 | 82 | 1009.7 |
| 20260506124500 | 58 | 178 | 1.0 | 6.0 | 0.00 | 0.00 | 0.00 | 83 | 1009.5 |
| 20260506123000 | 58 | 199 | 4.0 | 9.0 | 0.00 | 0.00 | 0.00 | 83 | 1009.2 |
| 20260506121500 | 58 | 185 | 5.0 | 3.0 | 0.00 | 0.00 | 0.00 | 85 | 1009.5 |
| 20260506120000 | 57 | 184 | 2.0 | 5.0 | 0.00 | 0.00 | 0.00 | 86 | 1009.7 |
| 20260506114500 | 56 | 167 | 2.0 | 6.0 | 0.00 | 0.00 | 0.00 | 88 | 1009.9 |
| 20260506113000 | 56 | 217 | 4.0 | 10.0 | 0.00 | 0.00 | 0.00 | 89 | 1010.1 |
| 20260506111500 | 55 | 176 | 4.0 | 4.0 | 0.00 | 0.00 | 0.00 | 90 | 1010.2 |
| 20260506110000 | 55 | 196 | 5.0 | 5.0 | 0.00 | 0.00 | 0.00 | 90 | 1010.2 |
| 20260506104500 | 55 | 189 | 2.0 | 9.0 | 0.00 | 0.00 | 0.00 | 90 | 1010.0 |
| 20260506103000 | 55 | 153 | 3.0 | 7.0 | 0.00 | 0.00 | 0.00 | 90 | 1010.1 |
| 20260506101500 | 55 | 180 | 3.0 | 6.0 | 0.00 | 0.00 | 0.00 | 91 | 1010.0 |
| 20260506100000 | 54 | 188 | 1.0 | 5.0 | 0.00 | 0.00 | 0.00 | 91 | 1010.0 |
| 20260506094500 | 54 | 106 | 3.0 | 7.0 | 0.00 | 0.00 | 0.00 | 92 | 1009.9 |
| 20260506093000 | 54 | 187 | 4.0 | 6.0 | 0.00 | 0.00 | 0.00 | 92 | 1010.0 |
| 20260506091500 | 54 | 209 | 2.0 | 6.0 | 0.00 | 0.00 | 0.00 | 92 | 1010.0 |
| 20260506090000 | 54 | 59 | 1.0 | 3.0 | 0.00 | 0.00 | 0.00 | 92 | 1010.2 |
| 20260506084500 | 54 | 196 | 6.0 | 7.0 | 0.00 | 0.00 | 0.00 | 92 | 1010.2 |
| 20260506083000 | 54 | 185 | 6.0 | 6.0 | 0.00 | 0.00 | 0.00 | 92 | 1010.2 |
| 20260506081500 | 54 | 201 | 5.0 | 6.0 | 0.00 | 0.00 | 0.00 | 92 | 1010.4 |
| 20260506073000 | 54 | 187 | 6.0 | 5.0 | 0.00 | 0.00 | 0.00 | 90 | 1010.4 |
| 20260506071500 | 55 | 128 | 2.0 | 6.0 | 0.00 | 0.00 | 0.00 | 90 | 1010.2 |
| 20260506061500 | 55 | 86 | 2.0 | 6.0 | 0.00 | 0.00 | 0.00 | 89 | 1010.4 |
| 20260506044500 | 56 | 151 | 3.0 | 4.0 | 0.00 | 0.00 | 0.00 | 87 | 1010.8 |
| 20260506043000 | 56 | 139 | 2.0 | 6.0 | 0.00 | 0.00 | 0.00 | 85 | 1010.9 |
| 20260506041500 | 56 | 132 | 2.0 | 5.0 | 0.00 | 0.00 | 0.00 | 85 | 1010.7 |
| 20260506040000 | 55 | 175 | 5.0 | 7.0 | 0.00 | 0.00 | 0.00 | 87 | 1010.8 |
| 20260506034500 | 54 | 110 | 2.0 | 7.0 | 0.00 | 0.00 | 0.00 | 87 | 1010.8 |
| 20260506033000 | 54 | 129 | 1.0 | 5.0 | 0.00 | 0.00 | 0.00 | 86 | 1010.8 |
| 20260506031500 | 54 | 201 | 7.0 | 7.0 | 0.00 | 0.00 | 0.00 | 86 | 1010.8 |
| 20260506030000 | 54 | 98 | 4.0 | 6.0 | 0.00 | 0.00 | 0.00 | 85 | 1010.6 |
| 20260506024500 | 54 | 153 | 3.0 | 5.0 | 0.00 | 0.00 | 0.00 | 84 | 1010.6 |
| 20260506023000 | 55 | 155 | 4.0 | 5.0 | 0.00 | 0.00 | 0.00 | 82 | 1010.6 |
| 20260506021500 | 55 | 187 | 3.0 | 4.0 | 0.00 | 0.00 | 0.00 | 81 | 1010.8 |